User: anonymous   Login
Location: Oshawa
(43.9000°N, 78.8670°W)
Time: 20:52:13
(UTC-05:00)
Language:

Hubble Space Telescope - Orbit

View from above orbital plane
View from above orbital plane
View from above satellite
View from above satellite

Ground track
Ground track

The orbit data is extracted from the following two-line orbital elements,

1 20580U 90037B   18054.49528897  .00000454  00000-0  16856-4 0  9997
2 20580  28.4692 146.6441 0002726   2.1219  97.1128 15.08983906328275
Epoch (UTC): 23 February 2018 11:53:12
Eccentricity: 0.0002726
inclination: 28.4692°
perigee height: 537 km
apogee height: 541 km
right ascension of ascending node: 146.6441°
argument of perigee: 2.1219°
revolutions per day: 15.08983906
mean anomaly at epoch: 97.1128°
orbit number at epoch: 32827

The dashed part of the orbit path shows where the satellite is in the earth's shadow,  

DLR